Tracking 29892 objects as of 21-Nov-2024
HD Live streaming from Space Station
objects crossing your sky now

CZ-6A DEB

Track CZ-6A DEB now!
10-day predictions


NORAD ID: 54938
Int'l Code: 2022-151SB
Perigee: 622.5 km
Apogee: 779.4 km
Inclination: 99.1 °
Period: 98.6 minutes
Semi major axis: 7071 km
RCS: Unknown
Launch date: November 11, 2022
Source: People's Republic of China (PRC)
Launch site: Taiyaun Space Center, China (TSC)

Note: This is SATELLITE DEBRIS
Your satellite tracking list
Your tracking list is empty




NASA's NSSDC Master Catalog

Two Line Element Set (TLE):
1 54938U 22151SB  24325.91003135  .00021770  00000-0  41785-2 0  9992
2 54938  99.1337  43.5069 0110935 262.4535  96.4049 14.59812949106478
Source of the keplerian elements: AFSPC